User: anonymous   Login
Location: Unspecified
(0.0000°N, 0.0000°E)
Time: 13:50:16
(UTC+00:00)
Language:

ALMASAT-1 - Orbit

View from above orbital plane
View from above orbital plane
View from above satellite
View from above satellite

Ground track
Ground track

The orbit data is extracted from the following two-line orbital elements,

1 38078U 12006B   17114.95250315 +.00038872 +38956-5 +44549-3 0  9992
2 38078 069.4372 275.3857 0316436 008.7229 351.9243 15.20093020276696
Epoch (UTC): 24 April 2017 22:51:36
Eccentricity: 0.0316436
inclination: 69.4372°
perigee height: 288 km
apogee height: 723 km
right ascension of ascending node: 275.3857°
argument of perigee: 8.7229°
revolutions per day: 15.20093020
mean anomaly at epoch: 351.9243°
orbit number at epoch: 27669

The dashed part of the orbit path shows where the satellite is in the earth's shadow,  

DLR